Location: Neuvy Saint Sepulchre
(46.5953°N, 1.8122°E)
Time: 20:43:10
(UTC+01:00)

ISS - Pass Details

Date: 20 March 2023
Orbit: 414 x 422 km, 51.6° (Epoch: 25 March)

Event Time Altitude Azimuth Distance (km) Brightness Sun altitude
Rises 21:49:27 0° 281° (W) 2,355 1.1 -27.6°
Reaches altitude 10° 21:51:41 10° 292° (WNW) 1,491 0.0 -27.9°
Enters shadow 21:53:02 20° 307° (NW) 1,031 -1.1 -28.1°
